Terminal Aerodrome Forecast
Issued by NWS

Current Version | Previous Version | Text Only | Print | Product List | Glossary On
Versions: 1 2 3 4 5 6 7 8 9 10 11 12 13 14 15 16 17 18 19 20 21 22 23 24 25 26 27 28 29 30 31 32 33 34 35 36 37 38 39 40 41 42 43 44 45 46 47 48 49 50
000
FTUS45 KGJT 070532
TAFTEX
TAF
KTEX 070532Z 0706/0806 14004KT P6SM VCSH SCT030 BKN060
      TEMPO 0706/0710 -SHRA BKN045
     FM071700 15008G15KT P6SM SCT070 BKN120
     FM072000 14009G17KT P6SM VCTS SCT070CB BKN120
     FM080200 15007KT P6SM SCT090 BKN150=

USA.gov is the U.S. government's official web portal to all federal, state and local government web resources and services.